GW0294 Weather Reports


Display with metric or nautical units.
time (UTC)temp
F
wind
direction
speed
MPH
gust
MPH
rain 1hr
in
rain 24hr
in
rain mn
in
humidity
%
barometer
mb
20260503235240 69 74 0.0 0.0 0.00 0.01 0.01 33 1007.0
20260503234240 70 144 0.0 0.0 0.00 0.01 0.01 30 1006.9
20260503233241 73 181 0.0 0.0 0.00 0.01 0.01 29 1006.7
20260503232239 73 140 0.0 0.0 0.00 0.01 0.01 30 1006.7
20260503231337 73 180 0.0 0.0 0.00 0.01 0.01 28 1006.5
20260503230339 74 210 0.0 0.0 0.00 0.01 0.01 29 1006.6
20260503225356 74 196 0.0 0.0 0.00 0.01 0.01 28 1006.4
20260503222540 74 209 0.0 0.0 0.00 0.01 0.01 29 1006.5
20260503221637 74 238 0.0 0.0 0.00 0.01 0.01 29 1006.5
20260503220639 74 219 0.0 0.0 0.00 0.01 0.01 29 1006.5
20260503215738 75 188 0.0 0.0 0.00 0.01 0.01 29 1006.4
20260503214755 75 140 0.0 0.0 0.00 0.01 0.01 32 1006.5
20260503211940 74 195 0.0 0.0 0.00 0.01 0.01 30 1006.4
20260503211840 74 174 0.0 0.0 0.00 0.01 0.01 30 1006.4
20260503210938 74 203 0.0 0.0 0.00 0.01 0.01 29 1006.6
20260503210037 74 165 0.0 0.0 0.00 0.01 0.01 33 1006.5
20260503205040 74 139 0.0 0.0 0.00 0.01 0.01 32 1006.4
20260503204040 73 211 0.0 0.0 0.00 0.01 0.01 32 1006.6
20260503203038 73 200 0.0 0.0 0.00 0.01 0.01 34 1006.7
20260503202038 73 205 0.0 0.0 0.00 0.01 0.01 35 1006.7
20260503201040 73 212 0.0 0.0 0.00 0.01 0.01 35 1006.8
20260503195139 72 178 0.0 0.0 0.00 0.01 0.01 36 1007.1
20260503194238 72 158 0.0 0.0 0.00 0.01 0.01 36 1007.2
20260503193239 71 201 0.0 0.0 0.00 0.01 0.01 39 1007.3
20260503192239 70 199 0.0 0.0 0.00 0.01 0.01 40 1007.4
20260503191256 70 229 0.0 0.0 0.00 0.01 0.01 40 1007.6
20260503190339 69 196 0.0 0.0 0.00 0.01 0.01 40 1007.8
20260503185339 68 218 0.0 0.0 0.00 0.01 0.01 40 1007.8
20260503184439 68 234 0.0 0.0 0.00 0.01 0.01 40 1008.0
20260503181539 67 245 0.0 0.0 0.00 0.01 0.01 41 1008.4
20260503180539 66 229 0.0 0.0 0.00 0.01 0.01 41 1008.4
20260503175539 66 224 0.0 0.0 0.00 0.01 0.01 41 1008.4
20260503174540 65 217 0.0 0.0 0.00 0.01 0.01 41 1008.6
20260503173539 65 189 0.0 0.0 0.00 0.01 0.01 41 1008.6
20260503172541 65 230 0.0 0.0 0.00 0.01 0.01 42 1008.8
20260503171637 64 212 0.0 0.0 0.00 0.01 0.01 42 1009.0
20260503170640 63 211 0.0 0.0 0.00 0.01 0.01 42 1009.2
20260503150839 60 226 0.0 0.0 0.00 0.01 0.01 44 1009.9
20260503131039 55 157 0.0 0.0 0.01 0.01 0.01 54 1010.8
20260503110355 54 237 0.0 0.0 0.00 0.00 0.00 54 1011.5
20260503081054 53 212 0.0 0.0 0.00 0.00 0.00 43 1013.3
20260503072237 53 213 0.0 0.0 0.00 0.00 0.00 43 1013.7
20260503071237 53 214 0.0 0.0 0.00 0.00 0.00 43 1013.9
20260503071137 53 218 0.0 0.0 0.00 0.00 0.00 43 1013.9
20260503071039 53 204 0.0 0.0 0.00 0.00 0.00 44 1013.9
20260503070137 53 191 0.0 0.0 0.00 0.00 0.00 44 1014.1
20260503060336 52 195 0.0 0.0 0.00 0.00 0.00 45 1014.3
20260503054340 52 157 0.0 0.0 0.00 0.00 0.00 46 1014.6
20260503053236 51 159 0.0 0.0 0.00 0.00 0.00 48 1014.7
20260503052238 51 135 0.0 0.0 0.00 0.00 0.00 48 1014.7
20260503051239 51 157 0.0 0.0 0.00 0.00 0.00 48 1014.8
20260503050239 50 218 0.0 0.0 0.00 0.00 0.00 49 1014.8
20260503045325 50 102 0.0 0.0 0.00 0.00 0.00 50 1015.0
20260503044423 50 168 0.0 0.0 0.00 0.00 0.00 49 1015.0
20260503044327 50 157 0.0 0.0 0.00 0.00 0.00 49 1014.8
20260503043325 50 157 0.0 0.0 0.00 0.00 0.00 50 1015.0
20260503042324 50 206 0.0 0.0 0.00 0.00 0.00 51 1015.1
20260503041423 50 218 0.0 0.0 0.00 0.00 0.00 50 1015.2
20260503034527 52 206 0.0 0.0 0.00 0.00 0.00 49 1015.5
20260503033526 51 118 0.0 0.0 0.00 0.00 0.00 50 1015.5
20260503032524 50 160 0.0 0.0 0.00 0.00 0.00 52 1015.5
20260503031523 50 220 0.0 0.0 0.00 0.00 0.00 52 1015.6
20260503030525 50 45 0.0 0.0 0.00 0.00 0.00 52 1015.9
20260503024525 51 180 0.0 0.0 0.00 0.00 0.00 51 1015.9
20260503023623 51 143 0.0 0.0 0.00 0.00 0.00 52 1015.9
20260503022624 51 45 0.0 0.0 0.00 0.00 0.00 50 1015.9
20260503020723 52 45 0.0 0.0 0.00 0.00 0.00 50 1016.0
20260503020624 52 45 0.0 0.0 0.00 0.00 0.00 50 1015.9
20260503015623 52 45 0.0 0.0 0.00 0.00 0.00 49 1015.9
20260503013623 53 45 0.0 0.0 0.00 0.00 0.00 46 1015.8
20260503012641 54 45 0.0 0.0 0.00 0.00 0.00 47 1015.9
20260503011624 55 45 0.0 0.0 0.00 0.00 0.00 44 1015.8
20260503010724 55 22 0.0 0.0 0.00 0.00 0.00 41 1015.9
20260503010624 55 22 0.0 0.0 0.00 0.00 0.00 42 1015.9
20260503005623 56 22 0.0 0.0 0.00 0.00 0.00 39 1015.8
20260503004640 57 90 0.0 0.0 0.00 0.00 0.00 39 1016.0
20260503003724 58 180 0.0 0.0 0.00 0.00 0.00 38 1015.9
20260503002739 59 218 0.0 0.0 0.00 0.00 0.00 36 1015.9
20260503000824 60 218 0.0 0.0 0.00 0.00 0.00 34 1016.1
20260502235826 60 243 0.0 0.0 0.00 0.00 0.00 33 1016.2